Location: Omaha
(41.2590°N, 95.9380°W)
Time: 06:45:28
(UTC-05:00)

Vanguard 1 Rocket - All Passes

Search period start: 23 October 2017 00:00
Search period end: 02 November 2017 00:00
Orbit: 655 x 4222 km, 34.3° (Epoch: 22 October)

Date Brightness Start Highest point End Pass type
(mag) Time Alt. Az. Time Alt. Az. Time Alt. Az.
23 Oct - 04:41:58 10° S 04:49:13 16° SSE 04:54:34 10° ESE visible
23 Oct - 07:06:40 10° SW 07:15:39 33° SSE 07:21:04 10° ESE visible
23 Oct - 09:34:21 10° WSW 09:40:38 41° S 09:44:59 10° ESE daylight
23 Oct - 12:01:12 10° WSW 12:04:46 21° SSW 12:08:14 10° SSE daylight
24 Oct - 03:34:13 10° SSE 03:37:02 11° SSE 03:39:34 10° SE visible
24 Oct - 05:54:05 10° SSW 06:04:17 28° SSE 06:10:31 10° ESE visible
24 Oct - 08:21:52 10° WSW 08:29:55 43° S 08:34:50 10° ESE daylight
24 Oct - 10:49:30 10° WSW 10:54:21 32° SSW 10:58:18 10° SE daylight
25 Oct - 04:41:55 10° SSW 04:52:29 22° SSE 04:59:23 10° ESE visible
25 Oct - 07:08:54 10° SW 07:18:55 40° S 07:24:40 10° ESE visible
25 Oct - 09:37:24 10° WSW 09:43:53 42° S 09:48:18 10° ESE daylight
25 Oct - 12:04:57 10° WSW 12:07:53 16° SSW 12:10:41 10° SSE daylight
26 Oct - 03:30:56 10° S 03:40:17 17° SSE 03:47:06 10° ESE visible
26 Oct - 05:55:43 10° SW 06:07:32 35° SSE 06:14:17 10° E visible
26 Oct - 08:24:40 10° WSW 08:33:10 47° S 08:38:15 10° ESE daylight
26 Oct - 10:52:50 10° WSW 10:57:31 27° SSW 11:01:19 10° SE daylight
27 Oct - 02:23:49 10° SSE 02:27:39 11° SE 02:31:05 10° SE visible
27 Oct - 04:42:42 10° SSW 04:55:43 30° SSE 05:03:31 10° ESE visible
27 Oct - 07:11:20 10° WSW 07:22:10 47° S 07:28:09 10° E visible
27 Oct - 09:40:28 10° W 09:47:05 40° SSW 09:51:32 10° SE daylight
27 Oct - 12:09:23 10° SW 12:10:55 11° SSW 12:12:25 10° S daylight
28 Oct - 03:30:26 10° SSW 03:43:27 23° SSE 03:52:00 10° ESE visible
28 Oct - 05:57:38 10° SW 06:10:46 43° SSE 06:17:52 10° E visible
28 Oct - 08:27:31 10° WSW 08:36:25 49° S 08:41:37 10° ESE daylight
28 Oct - 10:56:15 10° WSW 11:00:36 22° SSW 11:04:08 10° SSE daylight
29 Oct - 02:19:52 10° S 02:30:46 17° SSE 02:38:58 10° ESE visible
29 Oct - 04:43:58 10° SW 04:58:54 37° SSE 05:07:18 10° E visible
29 Oct - 07:13:55 10° WSW 07:25:24 52° S 07:31:34 10° ESE visible
29 Oct - 09:43:35 10° W 09:50:15 36° SSW 09:54:41 10° SE daylight
30 Oct - 01:15:23 10° SSE 01:17:48 10° SE 01:20:05 10° SE visible
30 Oct - 03:30:50 10° SSW 03:46:33 30° SSE 03:56:11 10° E visible
30 Oct - 05:59:48 10° WSW 06:13:58 50° S 06:21:22 10° E visible
30 Oct - 08:30:26 10° W 08:39:37 48° S 08:44:55 10° ESE daylight
30 Oct - 10:59:54 10° WSW 11:03:36 17° SSW 11:06:40 10° S daylight
31 Oct - 02:18:53 10° S 02:33:49 23° SSE 02:44:04 10° ESE visible
31 Oct - 04:45:36 10° SW 05:02:02 44° SSE 05:10:54 10° E visible
31 Oct - 07:16:35 10° WSW 07:28:36 55° S 07:34:56 10° ESE visible
31 Oct - 09:46:45 10° W 09:53:19 31° SSW 09:57:44 10° SE daylight
01 Nov - 01:09:15 10° S 01:20:46 16° SE 01:29:55 10° ESE visible
01 Nov - 03:31:46 10° SW 03:49:37 38° SSE 04:00:00 10° E visible
01 Nov - 06:02:09 10° WSW 06:17:07 55° S 06:24:48 10° E visible
01 Nov - 08:33:22 10° W 08:42:46 46° SSW 08:48:10 10° SE daylight
01 Nov - 11:04:01 10° WSW 11:06:28 13° SW 11:08:36 10° SSW daylight
